Location: Newark
(43.6583°N, 1.6617°E)
Time: 12:14:12
(UTC+00:00)

Vanguard 2 Rocket - Pass Details

Date: 25 August 2019
Orbit: 554 x 3327 km, 32.9° (Epoch: 16 September)

Event Time Altitude Azimuth Distance (km) Brightness Sun altitude
Exits shadow 03:16:16 25° 230° (SW) 3,502 9.2 -19.0°
Maximum altitude 03:24:37 54° 167° (SSE) 3,018 9.3 -17.7°
Drops below altitude 10° 03:42:49 10° 98° (E) 6,226 11.9 -15.0°
Sets 03:48:03 0° 95° (E) 7,315 12.5 -14.2°
